This is the latest recevied weather packets stored in our database for station/object KB1RMA-4. If no packets are shown the sender has not sent any weather packets the latest 10 day(s).
| Time | Temp. | Humidity | Pressure | Rain* | Wind** | Luminosity | Snow |
|---|---|---|---|---|---|---|---|
| 1787603792 | 28.33° C | 39% | 1012.3 hPa | 0 mm | - | 91 W/m² | - |
| 1787603487 | 28.89° C | 38% | 1012.2 hPa | 0 mm | - | 281 W/m² | - |
| 1787603183 | 28.89° C | 38% | 1012.3 hPa | 0 mm | - | 339 W/m² | - |
| 1787602879 | 28.89° C | 40% | 1012.4 hPa | 0 mm | - | 385 W/m² | - |
| 1787602574 | 27.78° C | 42% | 1012.5 hPa | 0 mm | - | 445 W/m² | - |
| 1787602269 | 27.78° C | 39% | 1012.6 hPa | 0 mm | - | 167 W/m² | - |
| 1787601968 | 27.78° C | 41% | 1012.4 hPa | 0 mm | - | 197 W/m² | - |
| 1787601663 | 27.22° C | 42% | 1012.4 hPa | 0 mm | - | 187 W/m² | - |
| 1787601358 | 27.22° C | 42% | 1012.4 hPa | 0 mm | - | 162 W/m² | - |
| 1787601057 | 27.78° C | 44% | 1012.3 hPa | 0 mm | - | 139 W/m² | - |
| 1787600752 | 27.78° C | 40% | 1012.2 hPa | 0 mm | - | 157 W/m² | - |
| 1787600447 | 27.78° C | 40% | 1012.2 hPa | 0 mm | - | 209 W/m² | - |
| 1787600143 | 27.78° C | 40% | 1012.4 hPa | 0 mm | - | 161 W/m² | - |
| 1787599840 | 28.33° C | 39% | 1012.1 hPa | 0 mm | - | 175 W/m² | - |
| 1787599536 | 28.89° C | 38% | 1012.1 hPa | 0 mm | - | 184 W/m² | - |
| 1787599232 | 28.89° C | 37% | 1012.4 hPa | 0 mm | - | 336 W/m² | - |
| 1787598927 | 29.44° C | 38% | 1012.1 hPa | 0 mm | - | 278 W/m² | - |
| 1787598623 | 30° C | 36% | 1012.3 hPa | 0 mm | - | 443 W/m² | - |
| 1787598323 | 30° C | 37% | 1012.2 hPa | 0 mm | - | 580 W/m² | - |
| 1787598020 | 29.44° C | 36% | 1012.3 hPa | 0 mm | - | 583 W/m² | - |
| 1787597719 | 30° C | 37% | 1012.3 hPa | 0 mm | - | 610 W/m² | - |
| 1787597418 | 30° C | 35% | 1012.3 hPa | 0 mm | - | 637 W/m² | - |
| 1787597119 | 30° C | 34% | 1012.2 hPa | 0 mm | - | 434 W/m² | - |
| 1787596815 | 30° C | 36% | 1012.4 hPa | 0 mm | - | 634 W/m² | - |
| 1787596510 | 30° C | 36% | 1012.5 hPa | 0 mm | - | 633 W/m² | - |
* Rain latest hour (hover to see other rain measurements)
** Current wind speed in m/s (hover to see current wind gust speed)